Weather History for KCWI - November, 2013

Change the Weather History Date:

Friday, November 1, 2013

  Actual Average Record
Temperature  
Mean Temperature 42 °F -  
Max Temperature 48 °F 57 °F 78 °F (1950)
Min Temperature 37 °F 41 °F 18 °F (1993)
Degree Days  
Heating Degree Days 22    
Moisture  
Dew Point 38 °F    
Average Humidity 82    
Maximum Humidity 93    
Minimum Humidity 71    
Precipitation  
Precipitation 0.00 in - - ()
Sea Level Pressure  
Sea Level Pressure 29.65 in    
Wind  
Wind Speed 11 mph (West)    
Max Wind Speed 17 mph    
Max Gust Speed 20 mph    
Visibility 9 miles    
Events      
Averages and records for this station are not official NWS values.
T = Trace of Precipitation, MM = Missing Value Source: NWS Daily Summary

Daily Weather History Graph

Daily Weather History Graph

Search for Another Location

Airport or City:

Trip Planner

Search our weather history database for the weather conditions in past years. The results will help you decide how hot, cold, wet, or windy it might be!

Date:

Astronomy

Nov. 01, 2013 Rise Set
Actual Time 7:33 AM CDT 5:55 PM CDT
Civil Twilight 7:04 AM CDT 6:24 PM CDT
Nautical Twilight 6:32 AM CDT 6:57 PM CDT
Astronomical Twilight 5:59 AM CDT 7:29 PM CDT
Moon 5:24 AM CDT (11/1) 4:49 PM CDT (11/1)
Length of Visible Light 11h 19m
Length of Day
10h 21m
Waning Crescent, 4% of the Moon is Illuminated
Nov 1
Waning Crescent
Nov 3
New
Nov 9
First Quarter
Nov 17
Full
Nov 25
Last Quarter

Hourly Weather History & Observations

Time (CDT) Temp. Windchill Dew Point Humidity Pressure Visibility Wind Dir Wind Speed Gust Speed Precip Events Conditions
12:15 AM 42.8 °F 35.8 °F 37.4 °F 81% 29.50 in 10.0 mi West 13.8 mph - N/A   Overcast
12:35 AM 42.8 °F 37.5 °F 37.4 °F 81% 29.50 in 10.0 mi West 9.2 mph - N/A   Overcast
12:55 AM 42.8 °F 37.0 °F 37.4 °F 81% 29.50 in 10.0 mi West 10.4 mph - N/A   Overcast
1:15 AM 42.8 °F 37.0 °F 37.4 °F 81% 29.50 in 8.0 mi West 10.4 mph - N/A   Overcast
1:35 AM 42.8 °F 37.5 °F 37.4 °F 81% 29.51 in 8.0 mi WSW 9.2 mph - N/A   Overcast
1:55 AM 42.8 °F 38.0 °F 39.2 °F 87% 29.51 in 9.0 mi WSW 8.1 mph - N/A   Overcast
2:15 AM 42.8 °F 37.5 °F 39.2 °F 87% 29.50 in 8.0 mi West 9.2 mph - N/A   Overcast
2:35 AM 42.8 °F 37.5 °F 39.2 °F 87% 29.50 in 10.0 mi West 9.2 mph - N/A   Overcast
2:55 AM 42.8 °F 38.0 °F 39.2 °F 87% 29.51 in 10.0 mi West 8.1 mph - N/A   Overcast
3:15 AM 42.8 °F 37.0 °F 39.2 °F 87% 29.51 in 10.0 mi West 10.4 mph - N/A   Overcast
3:35 AM 44.6 °F 39.2 °F 39.2 °F 81% 29.51 in 10.0 mi West 10.4 mph - N/A   Overcast
3:55 AM 44.6 °F 38.8 °F 39.2 °F 81% 29.52 in 10.0 mi West 11.5 mph 17.3 mph N/A   Overcast
4:15 AM 44.6 °F 38.4 °F 37.4 °F 76% 29.52 in 10.0 mi West 12.7 mph 17.3 mph N/A   Overcast
4:35 AM 42.8 °F 36.6 °F 39.2 °F 87% 29.52 in 10.0 mi West 11.5 mph - N/A   Overcast
4:55 AM 42.8 °F 36.6 °F 37.4 °F 81% 29.53 in 10.0 mi West 11.5 mph - N/A   Overcast
5:15 AM 42.8 °F 37.0 °F 37.4 °F 81% 29.54 in 10.0 mi West 10.4 mph - N/A   Overcast
5:35 AM 42.8 °F 36.6 °F 37.4 °F 81% 29.55 in 10.0 mi West 11.5 mph - N/A   Overcast
5:55 AM 42.8 °F 36.6 °F 37.4 °F 81% 29.55 in 10.0 mi West 11.5 mph - N/A   Overcast
6:15 AM 42.8 °F 36.6 °F 37.4 °F 81% 29.56 in 10.0 mi West 11.5 mph - N/A   Overcast
6:35 AM 42.8 °F 37.0 °F 37.4 °F 81% 29.57 in 10.0 mi West 10.4 mph - N/A   Overcast
6:55 AM 42.8 °F 37.0 °F 37.4 °F 81% 29.58 in 10.0 mi West 10.4 mph - N/A   Overcast
7:15 AM 42.8 °F 37.5 °F 37.4 °F 81% 29.58 in 10.0 mi West 9.2 mph - N/A   Overcast
7:35 AM 42.8 °F 38.6 °F 37.4 °F 81% 29.59 in 10.0 mi West 6.9 mph - N/A   Mostly Cloudy
7:55 AM 42.8 °F 38.6 °F 37.4 °F 81% 29.59 in 10.0 mi West 6.9 mph - N/A   Overcast
8:15 AM 42.8 °F 38.0 °F 37.4 °F 81% 29.60 in 10.0 mi West 8.1 mph - N/A   Overcast
8:35 AM 42.8 °F 37.5 °F 37.4 °F 81% 29.60 in 10.0 mi West 9.2 mph - N/A   Overcast
8:55 AM 42.8 °F 38.0 °F 37.4 °F 81% 29.61 in 10.0 mi West 8.1 mph - N/A   Overcast
9:15 AM 44.6 °F 39.2 °F 37.4 °F 76% 29.62 in 10.0 mi WNW 10.4 mph - N/A   Overcast
9:35 AM 44.6 °F 39.7 °F 37.4 °F 76% 29.62 in 10.0 mi WNW 9.2 mph - N/A   Overcast
9:55 AM 44.6 °F 37.8 °F 37.4 °F 76% 29.63 in 10.0 mi WNW 15.0 mph - N/A   Overcast
10:15 AM 44.6 °F 38.8 °F 37.4 °F 76% 29.63 in 10.0 mi WNW 11.5 mph 17.3 mph N/A   Overcast
10:35 AM 44.6 °F 37.8 °F 37.4 °F 76% 29.64 in 10.0 mi WNW 15.0 mph - N/A   Overcast
10:55 AM 44.6 °F 38.4 °F 37.4 °F 76% 29.64 in 10.0 mi WNW 12.7 mph 19.6 mph N/A   Overcast
11:15 AM 44.6 °F 38.4 °F 37.4 °F 76% 29.65 in 10.0 mi West 12.7 mph - N/A   Overcast
11:35 AM 44.6 °F 38.4 °F 37.4 °F 76% 29.66 in 10.0 mi West 12.7 mph - N/A   Overcast
11:55 AM 44.6 °F 38.4 °F 37.4 °F 76% 29.66 in 10.0 mi WNW 12.7 mph - N/A   Overcast
12:15 PM 46.4 °F 40.1 °F 39.2 °F 76% 29.66 in 10.0 mi West 15.0 mph - N/A   Overcast
12:35 PM 46.4 °F 40.4 °F 39.2 °F 76% 29.67 in 10.0 mi West 13.8 mph - N/A   Overcast
12:55 PM 46.4 °F 40.1 °F 39.2 °F 76% 29.67 in 10.0 mi West 15.0 mph - N/A   Overcast
1:15 PM 46.4 °F 40.4 °F 39.2 °F 76% 29.67 in 10.0 mi West 13.8 mph - N/A   Overcast
1:35 PM 46.4 °F 41.1 °F 39.2 °F 76% 29.67 in 10.0 mi WNW 11.5 mph 19.6 mph N/A   Overcast
1:55 PM 46.4 °F 40.7 °F 39.2 °F 76% 29.67 in 10.0 mi West 12.7 mph - N/A   Overcast
2:15 PM 46.4 °F 40.1 °F 39.2 °F 76% 29.67 in 10.0 mi West 15.0 mph - N/A   Overcast
2:35 PM 48.2 °F - 39.2 °F 71% 29.68 in 10.0 mi WNW 17.3 mph - N/A   Mostly Cloudy
2:55 PM 48.2 °F - 39.2 °F 71% 29.69 in 10.0 mi WNW 15.0 mph - N/A   Mostly Cloudy
3:15 PM 46.4 °F 40.4 °F 41.0 °F 81% 29.69 in 10.0 mi WNW 13.8 mph - N/A   Overcast
3:35 PM 46.4 °F 41.1 °F 41.0 °F 81% 29.69 in 8.0 mi West 11.5 mph 17.3 mph N/A   Overcast
3:55 PM 46.4 °F 40.7 °F 41.0 °F 81% 29.70 in 9.0 mi West 12.7 mph - N/A   Overcast
4:15 PM 46.4 °F 40.4 °F 41.0 °F 81% 29.70 in 9.0 mi West 13.8 mph - N/A   Overcast
4:35 PM 46.4 °F 40.7 °F 39.2 °F 76% 29.71 in 10.0 mi West 12.7 mph 19.6 mph N/A   Mostly Cloudy
4:55 PM 46.4 °F 40.7 °F 41.0 °F 81% 29.72 in 10.0 mi West 12.7 mph - N/A   Overcast
5:15 PM 46.4 °F 40.7 °F 39.2 °F 76% 29.72 in 10.0 mi West 12.7 mph 18.4 mph N/A   Overcast
5:35 PM 46.4 °F 41.5 °F 39.2 °F 76% 29.73 in 10.0 mi West 10.4 mph - N/A   Mostly Cloudy
5:55 PM 44.6 °F 39.7 °F 39.2 °F 81% 29.73 in 10.0 mi West 9.2 mph - N/A   Mostly Cloudy
6:15 PM 44.6 °F 40.7 °F 37.4 °F 76% 29.74 in 10.0 mi West 6.9 mph - N/A   Partly Cloudy
6:35 PM 42.8 °F 38.6 °F 37.4 °F 81% 29.74 in 10.0 mi WSW 6.9 mph - N/A   Clear
6:55 PM 42.8 °F 38.6 °F 37.4 °F 81% 29.75 in 10.0 mi WSW 6.9 mph - N/A   Partly Cloudy
7:15 PM 41.0 °F 36.4 °F 37.4 °F 87% 29.75 in 10.0 mi WSW 6.9 mph - N/A   Clear
7:35 PM 41.0 °F 37.1 °F 37.4 °F 87% 29.76 in 8.0 mi WSW 5.8 mph - N/A   Mostly Cloudy
7:55 PM 41.0 °F 37.1 °F 37.4 °F 87% 29.76 in 7.0 mi West 5.8 mph - N/A   Overcast
8:15 PM 41.0 °F 36.4 °F 37.4 °F 87% 29.76 in 7.0 mi WSW 6.9 mph - N/A   Scattered Clouds
8:35 PM 41.0 °F 36.4 °F 37.4 °F 87% 29.77 in 8.0 mi WSW 6.9 mph - N/A   Partly Cloudy
8:55 PM 41.0 °F 38.0 °F 37.4 °F 87% 29.77 in 7.0 mi WSW 4.6 mph - N/A   Mostly Cloudy
9:15 PM 41.0 °F 37.1 °F 37.4 °F 87% 29.77 in 7.0 mi WSW 5.8 mph - N/A   Overcast
9:35 PM 39.2 °F 35.0 °F 37.4 °F 93% 29.77 in 6.0 mi West 5.8 mph - N/A   Scattered Clouds
9:55 PM 39.2 °F 34.2 °F 37.4 °F 93% 29.78 in 5.0 mi West 6.9 mph - N/A   Clear
10:15 PM 39.2 °F 35.0 °F 37.4 °F 93% 29.79 in 4.0 mi West 5.8 mph - N/A   Partly Cloudy
10:35 PM 39.2 °F 35.0 °F 37.4 °F 93% 29.79 in 5.0 mi WNW 5.8 mph - N/A   Mostly Cloudy
10:55 PM 39.2 °F 35.0 °F 37.4 °F 93% 29.80 in 6.0 mi WNW 5.8 mph - N/A   Overcast
11:15 PM 39.2 °F 34.2 °F 35.6 °F 87% 29.80 in 5.0 mi West 6.9 mph - N/A   Scattered Clouds
11:35 PM 37.4 °F 32.8 °F 35.6 °F 93% 29.80 in 6.0 mi WNW 5.8 mph - N/A   Clear
11:55 PM 37.4 °F 33.8 °F 35.6 °F 93% 29.80 in 5.0 mi West 4.6 mph - N/A   Clear